Weather History for KCPS - March, 2014

Change the Weather History Date:

Wednesday, March 26, 2014

  Actual Average Record
Temperature  
Mean Temperature 33 °F -  
Max Temperature 51 °F 66 °F 79 °F (1950)
Min Temperature 15 °F 45 °F 7 °F (1955)
Degree Days  
Heating Degree Days 32    
Moisture  
Dew Point 16 °F    
Average Humidity 50    
Maximum Humidity 88    
Minimum Humidity 26    
Precipitation  
Precipitation 0.00 in - - ()
Sea Level Pressure  
Sea Level Pressure 30.24 in    
Wind  
Wind Speed 6 mph (SSE)    
Max Wind Speed 17 mph    
Max Gust Speed 23 mph    
Visibility 10 miles    
Events Rain    
Averages and records for this station are not official NWS values.
T = Trace of Precipitation, MM = Missing Value Source: NWS Daily Summary

Daily Weather History Graph

Daily Weather History Graph

Search for Another Location

Airport or City:

Trip Planner

Search our weather history database for the weather conditions in past years. The results will help you decide how hot, cold, wet, or windy it might be!

Date:

Astronomy

Mar. 26, 2014 Rise Set
Actual Time 6:54 AM CDT 7:18 PM CDT
Civil Twilight 6:28 AM CDT 7:44 PM CDT
Nautical Twilight 5:57 AM CDT 8:16 PM CDT
Astronomical Twilight 5:25 AM CDT 8:48 PM CDT
Moon 4:00 AM CDT 2:59 PM CDT
Length of Visible Light 13h 16m
Length of Day
12h 23m
Waning Crescent, 21% of the Moon is Illuminated
Mar 26
Waning Crescent
Mar 30
New
Apr 7
First Quarter
Apr 15
Full
Apr 22
Last Quarter

Hourly Weather History & Observations

Time (CDT) Temp. Windchill Dew Point Humidity Pressure Visibility Wind Dir Wind Speed Gust Speed Precip Events Conditions
12:53 AM 24.1 °F - 12.0 °F 60% 30.33 in 10.0 mi Calm Calm - N/A   Clear
1:53 AM 21.9 °F - 12.0 °F 66% 30.34 in 10.0 mi Calm Calm - N/A   Clear
2:53 AM 19.0 °F - 12.0 °F 74% 30.34 in 10.0 mi Calm Calm - N/A   Clear
3:53 AM 18.0 °F - 12.0 °F 78% 30.34 in 10.0 mi Calm Calm - N/A   Clear
4:53 AM 15.1 °F - 12.0 °F 88% 30.35 in 10.0 mi Calm Calm - N/A   Clear
5:53 AM 16.0 °F - 12.9 °F 88% 30.35 in 10.0 mi Calm Calm - N/A   Clear
6:53 AM 17.1 °F - 12.9 °F 84% 30.37 in 10.0 mi Calm Calm - N/A   Clear
7:53 AM 23.0 °F 17.0 °F 15.1 °F 72% 30.37 in 10.0 mi SSE 4.6 mph - N/A   Clear
8:53 AM 28.9 °F 19.2 °F 15.1 °F 56% 30.38 in 10.0 mi SSE 11.5 mph - N/A   Clear
9:53 AM 33.1 °F 23.9 °F 15.1 °F 48% 30.36 in 10.0 mi SSE 12.7 mph 19.6 mph N/A   Clear
10:53 AM 37.9 °F 29.2 °F 16.0 °F 41% 30.35 in 10.0 mi SE 15.0 mph 21.9 mph N/A   Clear
11:53 AM 41.0 °F 33.9 °F 15.1 °F 35% 30.30 in 10.0 mi SSE 12.7 mph 21.9 mph N/A   Clear
12:53 PM 45.0 °F 37.6 °F 14.0 °F 29% 30.26 in 10.0 mi SSE 17.3 mph - N/A   Clear
1:53 PM 46.9 °F - 15.1 °F 28% 30.24 in 10.0 mi SSE 12.7 mph 20.7 mph N/A   Clear
2:53 PM 48.9 °F - 16.0 °F 27% 30.20 in 10.0 mi SSE 12.7 mph - N/A   Clear
3:53 PM 50.0 °F - 17.1 °F 27% 30.16 in 10.0 mi South 12.7 mph 23.0 mph N/A   Clear
4:53 PM 51.1 °F - 17.1 °F 26% 30.13 in 10.0 mi South 13.8 mph 21.9 mph N/A   Clear
5:53 PM 48.9 °F - 19.0 °F 31% 30.10 in 10.0 mi SSE 13.8 mph 19.6 mph N/A   Mostly Cloudy
6:53 PM 46.9 °F - 19.9 °F 34% 30.11 in 10.0 mi SSE 12.7 mph - N/A   Overcast
7:53 PM 45.0 °F 39.3 °F 19.9 °F 37% 30.10 in 10.0 mi SSE 11.5 mph - N/A   Clear
8:53 PM 45.0 °F 40.1 °F 21.0 °F 39% 30.10 in 10.0 mi SSE 9.2 mph - N/A   Scattered Clouds
9:53 PM 45.0 °F 40.1 °F 21.0 °F 39% 30.07 in 10.0 mi SSE 9.2 mph - N/A   Overcast
10:53 PM 44.1 °F 38.1 °F 21.0 °F 40% 30.05 in 10.0 mi SSE 11.5 mph 19.6 mph N/A   Overcast
11:53 PM 44.1 °F 38.6 °F 23.0 °F 43% 30.04 in 10.0 mi SSE 10.4 mph - 0.00 in Rain Light Rain